Web Car-Videos.com

 

Car-videos.com

Videos
Performance Statistics
Unit Converter
Horsepower & Torque
Speed/RPM Calculator
Tires
FAQ
Contact Us
Updates and News Feed
Advertise with Us!  new!
Link to Us


Add to My AOL

Subscribe in NewsGator Online








Performance Home  |  List of all Cars  |  Custom Statistics  |  Tracks

Adelaide International Circuit
Adelaide, Australia
2.25 Miles

The first lap time is from a dead stop and the 2nd is taken when the car passes the starting line at the end of the 1st lap.

Car First Lap Second Lap
1.1994 McLaren F1 (6M)1:58.81:55.7
2.1966 AC Cobra 427 (4M)2:03.72:00.2
3.2002 Porsche 911 GT2 (6M)2:04.82:01.0
4.2003 Ferrari 575M Maranello F1 (5M)2:07.82:04.0
5.1997 Lotus Esprit Turbo (5M)2:08.42:04.5
6.1993 Mazda RX-7 Twin Turbo (5M)2:09.52:05.2
7.2000 Maserati 3200 GT (6M)2:09.52:05.3
8.1998 Subaru Impreza WRX 22B STi (5M)2:10.62:07.3
9.1970 Ford Mustang Boss 429 (4M)2:12.12:07.4
10.1994 Toyota Supra Turbo (6M)2:12.42:07.7
11.2001 Mercedes-Benz CLK 55 AMG (5A)2:12.92:09.1
12.2002 Mercedes-Benz C 32 AMG (5A)2:13.72:09.0
13.2004 Subaru Impreza WRX STi (USA) (6M)2:14.02:09.7
14.2007 Acura TL Type-S (6M)2:14.42:09.7
15.1987 Buick Regal Grand National GNX (4A)2:14.62:10.4
16.2003 Mitsubishi Lancer Evolution (USA) (5M)2:14.92:10.9
17.2007 Infiniti G35 Sport Sedan (6M)2:15.22:11.1
18.2003 Nissan 350Z Track (6M)2:15.32:11.7
19.2004 Mazda RX-8 (6M)2:16.82:12.3
20.1998 Ford Mustang GT (5M)2:17.02:12.7
21.2002 Acura RSX Type-R (Jap) (6M)2:17.32:12.3
22.2001 Audi S4 Quattro (6M)2:17.62:13.1
23.2002 Lexus SC430 (5A)2:18.32:13.6
24.1995 Mitsubishi Eclipse GS-T (5M)2:18.52:13.9
25.2001 Toyota Celica GT-S (6M)2:19.42:14.7
26.1973 Porsche 911 Carrera RS (5M)2:19.52:14.8
27.2002 Subaru Impreza WRX Sedan (5M)2:19.72:15.8
28.1993 Ford Mustang LX 5.0 Coupe (5M)2:19.82:14.7
29.1996 Honda Prelude VTEC (5M)2:20.02:14.8
30.2005 Chevrolet Cobalt SS Supercharged (5M)2:20.02:15.0
31.2001 Acura Integra Type R (5M)2:20.32:15.2
32.1990 Mazda RX-7 Turbo (5M)2:20.42:16.2
33.2000 Saab 9-3 Viggen 3-Door (5M)2:20.52:15.5
34.1989 Toyota Supra Turbo (5M)2:20.72:16.4
35.1995 Mitsubishi Eclipse GSX (5M)2:21.02:16.2
36.2003 Nissan Altima 3.5SE (5M)2:21.32:16.8
37.2001 Lexus IS 300 (5A)2:21.32:16.4
38.1999 BMW 328 i (5M)2:21.62:16.1
39.2002 Jaguar X-Type 3.0 (5M)2:21.92:16.7
40.1991 Toyota MR2 Turbo Coupe (5M)2:22.02:17.4
41.2002 Nissan Sentra SE-R Spec V (6M)2:22.32:16.9
42.2001 Mazda Miata (5M)2:22.52:17.3
43.2000 Audi TT Coupe 180HP (5M)2:22.62:18.8
44.1969 Chevrolet Chevelle SS 396 (3A)2:22.72:18.2
45.2002 Pontiac Vibe GT (6M)2:23.22:17.8
46.1999 Volvo S80 T6 (4A)2:23.22:17.9
47.2001 Cadillac Deville DTS (4A)2:23.32:18.4
48.2004 Subaru Forester 2.5XT Turbo (5M)2:23.42:19.7
49.1997 Pontiac Grand Prix GTP Sedan (4A)2:23.52:18.4
50.2003 Mercury Marauder (4A)2:23.72:19.4
51.1994 Subaru SVX LS (4A)2:23.72:17.8
52.1998 Mercedes-Benz E 320 AWD (5A)2:24.22:19.7
53.1995 Chevrolet Camaro V6 (3.4) (4A)2:24.32:19.3
54.2003 Nissan Altima 3.5SE (4A)2:24.32:19.4
55.1994 Alfa Romeo 164 Quadrifoglio (5M)2:24.42:19.5
56.2000 Honda Civic SI (5M)2:25.02:19.7
57.2002 Dodge Neon ACR (5M)2:25.32:20.5
58.1997 Audi A4 1.8T Quattro (5M)2:25.82:21.3
59.1986 Pontiac Fiero GT (4M)2:25.92:20.9
60.1989 Toyota MR2 Supercharged (5M)2:26.02:21.6
61.1993 Honda Civic SI Hatchback (5M)2:26.22:20.9
62.1984 Toyota Supra (5M)2:26.32:21.1
63.1998 Honda Accord EX V6 Coupe (4A)2:26.42:21.6
64.1989 BMW 535 i (5M)2:26.42:20.8
65.2003 Mazda Protege5 (5M)2:26.42:21.0
66.2001 Chrysler PT Cruiser (5M)2:27.02:21.7
67.1990 Ford Probe LX (5M)2:27.82:22.3
68.1998 Mazda 626 EX (4A)2:28.32:22.8
69.1991 Ford Escort GT (5M)2:28.42:22.9
70.1990 Honda Civic Si (5M)2:28.72:23.1
71.2003 Subaru Legacy L Special Edition (5M)2:29.02:23.8
72.1995 Dodge Neon (5M)2:30.12:24.4
73.2005 Ford Freestyle SEL AWD (CVT)2:30.32:25.1
74.2003 Toyota Camry SE 2.4 (5M)2:30.52:25.6
75.2002 Volkswagen Passat GLX 4Motion (5A)2:32.02:26.3
76.2003 Volkswagen Passat GLX V6 (5A)2:32.02:27.3
77.1993 Citroen XM (4A)2:32.12:27.3
78.2002 Honda CR-V EX (5M)2:32.42:27.4
79.2004 Suzuki Verona EX (4A)2:33.12:26.7
80.2000 Ford Mustang Coupe (4A)2:33.82:28.3
81.1994 Audi Cabriolet (4A)2:34.32:29.0
82.2002 Kia Sedona EX (5A)2:35.52:30.2
83.1995 Chevrolet Blazer LS 4X4 (4A)2:35.52:30.3
84.2002 Jeep Liberty Limited 4x4 (4A)2:36.42:31.5
85.1998 Toyota Camry LE 2.2 (4A)2:37.42:31.3
86.1989 Daihatsu Charade CLS (5M)2:37.82:32.4
87.2003 Hummer H2 (4A)2:47.22:42.0